Theta_e
347 344 335 326 321 319 322 328 331 336 343 347 349 350 351 351 350 350 349 349 348 347 346 343 341 340 337 335 332 328 322 324 332 338 340 342 343 341 338 336 337 339 338 337 341 340 336 335 335 338 343 342 340 339 340 340 339 339 337 336 336 338 338 336 334 333 333 334 334 334 335 334 333 333 334 334 334 333 335 334 333 332 331 333 333
346 340 330 323 320 318 319 326 330 339 345 347 349 348 350 350 350 349 349 348 347 346 344 342 340 339 336 334 331 326 323 328 335 339 341 343 343 342 340 337 338 340 342 339 340 342 338 335 337 340 342 341 340 340 340 339 339 340 338 338 338 338 337 335 333 331 332 334 335 335 334 334 333 332 333 334 334 334 334 334 332 332 331 332 333
344 335 326 321 320 320 322 327 332 341 345 347 347 347 348 348 348 347 348 347 346 344 343 342 340 337 335 333 329 325 326 333 338 340 341 342 343 343 341 340 339 340 342 342 341 342 340 338 337 338 342 341 340 340 339 339 337 338 338 338 338 337 335 332 331 329 329 330 332 334 333 333 332 333 334 334 334 334 334 332 331 332 332 332 332
344 335 324 319 319 321 325 329 335 341 344 346 345 345 345 344 344 344 345 345 345 344 343 342 339 336 334 331 327 326 332 337 340 341 341 342 343 342 342 341 341 341 342 341 341 342 341 340 337 337 341 341 340 341 339 338 336 335 334 335 336 334 330 328 330 329 329 330 330 331 331 332 333 334 335 334 334 333 332 331 332 333 333 332 331
345 338 326 323 324 324 325 330 336 340 342 343 343 343 343 342 341 341 342 343 344 343 343 341 338 335 332 329 327 328 335 339 339 339 340 341 342 342 342 341 341 342 342 340 338 341 341 339 339 339 341 340 341 340 338 338 337 333 330 333 332 327 328 330 331 331 332 334 333 331 332 333 333 334 334 333 333 331 330 330 332 332 331 331 330
347 343 338 337 336 331 327 329 332 333 334 335 337 339 338 337 337 339 341 343 343 343 344 341 338 335 331 328 328 331 336 339 338 338 339 338 338 339 340 339 340 342 341 339 338 339 341 340 339 341 340 340 340 339 337 337 337 335 332 335 330 324 330 333 333 334 334 336 335 333 332 333 332 333 332 332 333 331 330 331 332 331 330 331 331
344 343 344 344 342 336 328 325 326 324 324 326 331 335 333 333 336 339 341 342 342 343 344 341 338 334 329 329 332 335 337 337 337 336 335 331 329 333 338 339 341 342 340 340 340 340 342 341 340 342 341 339 337 335 334 334 336 334 332 333 328 326 332 333 334 335 335 337 338 335 332 333 331 332 332 332 332 332 332 331 331 330 331 331 331
341 340 340 337 336 333 325 323 323 322 322 323 327 331 332 333 336 339 340 341 341 341 340 338 335 331 329 332 336 337 337 336 336 335 332 327 326 331 337 341 342 342 341 341 342 341 342 341 342 342 338 334 328 326 327 328 332 330 328 327 323 328 332 333 334 334 336 337 339 336 332 333 331 332 333 332 332 332 332 332 332 331 331 331 330
343 343 340 336 333 327 324 324 323 323 324 325 327 330 332 334 337 339 340 340 341 340 339 338 335 332 333 335 337 336 335 335 334 333 331 329 329 332 335 339 341 342 342 341 342 342 340 340 342 339 332 324 316 315 316 318 323 327 328 323 318 328 332 332 333 333 335 336 338 335 332 332 332 333 333 332 332 332 332 332 331 331 331 331 330
344 345 343 339 332 325 324 325 326 328 328 328 329 329 330 333 336 338 339 340 342 342 341 339 337 336 337 336 336 336 335 335 334 333 332 332 333 335 336 338 339 341 341 340 340 340 340 341 339 332 322 314 310 310 311 312 318 325 326 319 317 328 331 332 333 333 335 335 335 335 333 333 332 333 333 331 331 332 332 331 330 331 332 331 330
345 345 343 338 331 328 327 327 330 331 330 331 329 329 330 332 334 335 337 340 341 343 341 339 339 338 338 337 336 335 334 334 333 333 333 334 336 336 337 338 338 339 339 338 339 339 340 340 335 324 316 313 316 319 320 322 321 320 320 319 323 331 333 334 334 334 335 334 334 335 335 333 332 332 333 332 332 332 332 332 332 332 331 330 330
346 346 344 338 334 333 330 329 331 331 332 332 330 330 330 331 332 332 335 339 341 341 341 339 339 339 338 337 335 334 334 334 333 334 335 336 338 337 337 337 338 338 338 338 338 339 339 338 333 320 315 321 327 329 330 331 328 322 321 325 329 333 335 335 335 334 333 332 334 335 335 332 329 330 333 333 333 333 332 332 332 331 331 330 330
347 347 344 340 336 334 332 330 331 331 332 331 331 331 330 330 331 332 333 338 340 340 340 338 338 338 338 337 335 334 335 336 335 336 336 337 337 338 338 337 337 337 337 338 339 339 339 338 330 317 317 327 330 332 334 334 332 328 327 330 332 334 335 335 336 336 331 331 334 334 334 331 329 331 333 333 333 332 331 331 331 331 330 330 330
347 347 345 342 338 335 333 332 332 331 332 332 333 333 331 330 330 332 333 337 340 340 339 338 338 337 337 337 335 335 336 338 338 338 336 334 334 336 338 336 335 335 335 337 339 339 339 338 326 315 323 331 330 333 335 334 332 329 329 332 333 334 335 336 338 337 331 332 335 335 335 331 328 332 332 332 332 331 331 331 331 331 330 330 330
347 347 345 343 341 338 337 335 334 333 333 334 335 334 332 331 331 332 333 337 340 340 339 338 338 337 337 337 336 337 338 340 339 340 336 332 333 334 335 334 333 334 331 334 339 339 340 336 322 318 330 334 332 333 334 332 331 329 328 331 332 333 335 337 337 335 332 333 335 335 334 328 326 331 332 332 332 331 331 330 330 330 330 331 330
347 346 345 344 343 341 340 337 336 337 337 336 337 335 333 333 333 332 333 336 339 340 339 338 337 337 338 338 339 339 339 340 339 339 336 333 335 333 333 332 333 333 330 333 339 340 340 332 320 324 333 335 334 335 335 332 331 330 328 329 331 333 335 336 334 332 331 333 335 335 333 325 324 331 333 332 332 332 331 331 331 330 331 330 329
347 346 345 344 344 343 340 339 339 339 339 338 338 336 334 334 334 333 333 335 337 337 338 338 337 337 337 338 339 338 338 339 338 339 336 334 336 334 333 333 334 334 331 334 339 339 338 331 323 328 334 335 336 337 335 332 330 329 329 328 330 333 334 334 333 331 330 332 336 335 332 324 324 331 333 332 332 332 331 331 332 331 330 329 329
347 346 345 344 343 342 341 341 340 340 340 340 340 337 336 335 335 334 334 334 334 335 336 336 336 336 336 337 338 338 337 337 338 339 337 335 336 335 334 333 334 335 333 335 338 339 338 332 328 331 335 336 338 337 334 332 329 327 329 329 329 332 333 333 334 332 330 332 336 335 330 322 321 328 332 333 333 332 331 331 332 331 330 329 329
345 346 345 344 343 342 342 342 341 341 341 341 340 340 339 337 335 334 332 332 331 332 332 333 333 333 335 336 338 338 336 336 338 338 337 337 336 335 333 332 334 336 335 336 338 339 337 334 333 334 336 337 338 336 333 332 329 326 329 329 328 332 332 332 335 331 329 333 334 334 332 324 319 324 330 333 333 332 332 331 331 331 330 329 329
345 345 345 344 344 343 343 343 343 342 342 342 340 340 340 339 336 333 331 332 331 330 330 331 331 331 334 336 337 338 337 337 338 337 337 337 336 334 332 331 334 336 337 337 338 338 338 337 337 337 337 337 337 335 333 332 330 326 328 329 327 330 330 332 335 329 328 334 333 332 333 326 317 324 332 333 333 333 332 331 331 330 330 329 329
345 345 345 344 344 343 344 344 342 342 342 342 341 340 339 338 337 334 332 333 333 331 331 331 330 331 334 336 336 338 338 337 337 337 336 335 333 333 333 331 334 336 336 336 338 338 338 338 337 336 336 337 337 335 333 333 331 327 327 329 326 327 329 332 334 329 329 334 333 332 330 323 316 323 332 333 333 333 332 332 331 330 330 330 329
344 344 344 344 343 343 343 343 342 342 341 341 342 340 339 339 338 336 334 334 334 332 332 332 333 334 334 336 337 338 337 336 336 337 336 333 331 332 333 333 335 335 333 334 336 337 338 337 337 336 336 336 336 335 333 331 331 328 326 328 327 328 332 334 333 331 331 331 331 332 328 322 317 320 328 332 333 334 333 332 331 331 330 330 329
344 343 343 343 343 342 342 342 342 342 342 341 342 340 339 340 339 338 336 336 336 336 336 336 337 336 335 335 336 336 336 335 335 336 336 334 332 332 334 334 335 334 333 334 333 334 335 335 335 335 334 334 332 330 332 333 331 328 327 327 328 332 335 333 332 331 331 329 330 332 328 323 319 318 326 333 333 333 333 332 331 331 330 330 329
343 342 342 342 342 342 342 342 341 342 342 341 341 340 340 339 339 339 338 338 338 337 338 338 337 336 336 335 335 335 335 336 334 337 337 334 333 333 334 333 333 334 333 334 333 333 332 331 330 328 328 327 326 326 331 335 332 330 327 326 328 333 334 332 332 331 331 331 330 331 328 325 322 319 325 333 335 333 333 333 332 331 331 330 330
341 341 341 342 342 342 342 342 341 341 342 340 340 340 339 339 338 339 339 339 338 337 337 337 337 336 337 336 335 336 336 336 335 337 337 334 334 332 332 332 332 334 333 333 334 335 333 332 332 329 327 327 327 328 332 334 333 332 329 327 329 332 333 332 332 330 330 333 332 330 328 325 325 324 323 329 334 334 333 333 333 332 331 331 330
340 340 341 342 343 343 343 342 341 341 341 339 339 339 338 338 338 339 339 338 337 337 336 336 337 336 336 335 335 335 334 335 335 336 337 336 336 334 334 335 335 334 332 331 334 335 334 334 335 334 332 333 333 331 332 333 333 333 331 330 331 332 332 331 332 330 330 332 331 330 329 326 327 328 327 327 331 333 333 333 333 332 332 331 331
340 340 340 341 342 344 343 342 341 340 340 340 339 337 337 338 338 338 337 337 336 335 336 335 335 335 335 335 334 334 333 332 333 335 336 336 336 336 333 333 335 334 331 331 332 334 334 333 334 334 334 334 333 332 332 332 332 332 331 331 332 332 332 331 331 330 331 332 331 330 329 327 327 328 328 329 331 332 332 334 334 333 333 332 331
340 341 341 341 342 343 343 343 342 340 340 339 338 338 338 338 338 337 335 336 335 335 335 334 334 334 334 334 334 334 333 333 333 335 335 335 335 336 333 331 333 332 331 332 332 333 333 333 333 334 334 333 333 332 331 330 330 331 330 330 330 331 332 331 331 329 331 333 331 331 328 325 328 328 328 329 331 332 333 334 335 334 334 333 332
341 341 342 342 342 343 343 343 343 341 341 339 338 338 339 338 337 336 335 335 334 334 335 335 334 334 334 335 334 334 334 333 334 334 334 335 335 335 334 334 334 332 331 331 332 333 333 333 333 333 333 333 333 332 332 330 328 328 329 329 330 330 331 331 331 330 330 333 332 331 328 324 326 329 329 328 329 330 332 334 335 335 335 334 333
341 341 341 341 341 341 342 342 341 340 339 339 339 338 338 337 336 336 335 335 334 334 334 334 334 334 335 334 333 333 333 334 334 334 333 334 334 333 333 333 333 334 333 332 332 332 332 333 333 333 333 332 332 332 331 331 329 327 327 327 328 329 330 330 331 330 329 333 333 332 329 326 327 330 330 330 330 329 329 332 334 336 336 336 335
341 340 341 340 340 340 340 340 339 339 338 338 338 338 338 337 336 336 336 336 335 333 333 333 333 334 335 333 332 332 332 333 334 333 333 333 333 333 332 331 332 334 334 334 334 333 332 332 333 333 333 332 332 332 331 332 332 332 330 329 329 329 328 329 329 329 329 331 332 332 331 328 328 328 328 330 331 331 330 329 331 333 335 336 336
340 340 340 340 340 340 339 339 338 338 337 337 337 337 338 337 336 337 336 336 335 333 333 333 333 333 333 332 331 332 331 332 332 333 333 333 332 332 332 332 333 333 333 333 333 333 333 332 332 332 332 333 333 332 333 332 332 335 335 334 333 333 331 330 329 328 329 328 330 332 331 331 330 328 326 328 330 331 332 331 330 331 332 334 335
340 340 340 340 340 339 339 338 338 337 337 337 337 337 338 338 338 338 337 336 336 335 334 334 333 332 333 333 332 332 331 330 331 332 332 332 331 331 331 332 333 333 333 332 332 332 333 333 332 332 333 332 332 333 333 331 332 336 336 335 335 334 333 331 330 329 329 329 330 333 332 331 331 330 328 328 329 330 332 333 333 332 331 332 334
340 340 340 340 339 339 339 338 337 337 337 336 337 339 339 338 338 338 337 337 336 335 335 335 335 334 333 333 333 332 331 331 330 331 332 330 331 331 330 332 333 332 333 332 332 332 332 332 332 333 333 332 331 332 331 330 332 336 336 336 335 333 332 331 330 330 330 330 330 333 335 334 332 332 332 332 332 330 331 333 334 334 334 333 333
339 340 340 339 338 339 338 338 337 337 337 337 338 339 339 338 338 338 337 337 335 335 335 335 335 333 332 332 333 333 332 333 332 330 330 330 331 330 329 332 333 332 333 333 332 333 332 332 333 332 332 332 332 332 331 330 330 333 337 336 332 331 332 331 331 331 330 330 330 331 335 336 336 336 336 336 335 334 332 333 334 335 336 335 334
338 339 338 338 339 338 338 338 338 337 337 337 338 338 338 337 336 337 337 337 336 335 335 335 333 332 331 331 331 331 331 331 330 330 330 330 330 330 329 331 331 330 331 332 332 333 332 333 333 332 332 332 332 332 331 331 330 330 333 334 331 330 332 331 330 331 330 330 330 330 332 334 336 338 338 338 337 336 334 334 335 336 336 336 335
337 337 337 338 339 338 339 339 338 338 337 337 337 336 336 335 335 335 336 337 336 335 335 334 333 332 332 332 332 331 330 329 329 329 330 330 330 330 329 330 330 329 329 330 331 332 332 333 333 332 333 333 333 332 331 331 332 331 331 333 333 330 330 331 330 330 330 330 331 330 331 333 335 336 337 339 339 338 337 336 336 336 336 335 336
336 336 336 337 338 339 338 338 338 338 337 337 336 335 335 335 335 335 336 336 335 335 335 334 333 333 333 333 333 332 330 331 330 329 330 329 329 328 328 328 328 328 328 329 330 331 331 332 332 332 333 333 332 333 331 331 333 332 331 333 335 333 329 329 330 330 331 331 331 331 331 332 335 335 335 337 339 338 338 338 338 337 336 335 334
335 335 335 337 337 338 338 338 337 337 336 336 334 334 334 334 335 335 334 334 333 333 333 332 333 333 333 332 332 331 331 331 331 331 330 330 330 329 329 329 329 330 330 330 330 331 331 331 331 332 332 332 332 332 332 332 332 332 331 332 334 336 334 331 330 330 330 331 331 331 331 332 334 336 336 336 337 337 337 338 338 338 336 333 331
334 334 335 336 336 337 337 337 337 336 335 333 332 332 332 333 333 333 332 331 331 331 330 330 331 331 331 331 331 330 330 331 331 331 331 330 331 330 331 331 330 331 331 329 329 330 330 330 330 330 331 331 331 331 332 331 330 330 331 331 332 334 335 334 332 331 331 331 332 331 332 331 331 333 334 334 335 335 336 338 338 336 335 332 329
334 334 334 335 335 336 336 336 335 334 333 332 332 331 331 332 332 331 330 329 329 330 329 329 329 329 330 330 330 329 329 329 329 330 330 330 330 330 331 331 331 331 330 328 328 328 329 330 330 329 330 330 329 329 329 327 328 330 330 330 330 330 331 331 330 332 332 331 332 332 332 331 332 333 332 331 332 334 335 337 336 334 335 335 332
334 334 334 334 334 334 335 335 334 333 332 332 332 332 331 332 331 331 330 328 328 329 330 330 330 329 329 328 327 328 328 328 328 328 328 329 329 330 329 330 331 331 331 331 330 328 328 329 329 328 329 330 329 328 327 326 328 330 330 330 331 331 330 328 328 331 332 331 331 332 332 332 332 333 332 331 331 333 334 335 334 332 333 336 336
335 334 334 334 334 334 334 334 333 332 333 332 332 332 331 331 330 330 329 329 329 329 329 329 328 327 326 326 324 324 326 326 327 327 327 327 328 329 329 329 330 330 330 332 332 330 329 329 329 329 330 329 328 328 327 328 328 329 329 331 332 332 333 332 330 330 330 331 330 330 331 331 331 331 331 333 333 334 333 333 333 332 332 335 336
335 334 335 334 334 334 334 333 333 333 334 333 333 332 331 330 330 330 329 330 330 329 328 327 326 324 323 324 323 323 324 324 325 327 326 326 327 327 327 327 328 329 329 330 330 329 328 330 330 330 330 329 329 328 327 327 328 329 331 331 331 330 332 333 331 329 328 329 330 329 329 328 328 329 329 331 332 332 332 331 331 332 332 332 333
336 335 335 335 335 335 334 333 333 334 334 334 333 333 332 332 332 332 331 329 328 327 328 327 325 325 324 324 324 325 325 325 326 327 326 326 326 326 327 326 326 326 326 327 327 326 327 327 326 327 327 327 328 328 328 328 327 329 330 331 332 332 334 332 331 330 327 327 327 327 328 327 327 328 329 329 330 330 330 330 331 331 332 332 332
336 336 336 335 335 335 334 334 334 334 334 334 334 334 334 334 333 332 330 328 328 329 329 325 323 324 324 325 325 325 326 326 326 326 326 326 326 326 326 326 325 324 324 325 325 323 324 324 324 324 324 323 324 325 327 327 326 328 328 328 330 331 332 331 332 333 330 327 327 325 326 327 327 327 328 328 328 329 330 330 330 330 331 332 333
336 337 336 335 336 335 335 334 334 334 334 333 335 335 334 334 332 330 329 328 330 331 328 325 324 325 324 325 325 325 326 326 326 325 325 325 326 325 325 325 325 324 324 325 324 323 323 323 323 323 323 322 322 323 324 322 324 328 327 327 328 328 328 329 332 335 333 331 330 326 325 325 326 327 326 327 328 329 329 329 329 329 330 331 331
336 337 337 336 336 336 334 334 334 334 333 333 335 334 334 333 331 330 329 329 331 330 328 325 325 325 325 325 325 325 325 325 326 325 325 324 325 324 324 324 323 322 323 324 323 322 322 322 323 322 322 322 321 321 322 321 322 324 323 324 325 324 325 327 329 331 332 332 329 327 325 323 324 325 325 327 328 329 330 329 328 329 329 328 328
332 334 336 336 336 335 334 334 334 333 333 333 334 333 333 332 331 331 330 330 331 329 327 326 325 325 326 325 325 326 326 325 325 325 324 324 324 324 323 323 322 320 321 322 321 321 321 322 322 321 321 322 322 321 321 320 321 321 321 321 321 321 322 323 325 326 328 329 327 325 324 323 325 326 326 327 329 329 329 328 327 327 326 325 326
330 330 333 335 336 336 334 334 334 333 333 334 333 332 332 332 331 332 331 330 330 327 325 326 326 326 327 326 325 324 324 325 325 324 324 323 323 323 323 322 321 319 320 321 320 320 320 320 320 320 320 321 320 320 319 319 319 319 320 320 320 321 322 323 323 322 322 324 325 324 323 324 325 325 325 326 327 327 326 326 326 325 324 324 325
330 330 331 334 335 335 334 334 334 334 334 334 333 332 333 332 332 332 331 330 328 325 325 326 326 327 327 326 325 324 324 324 324 324 323 322 321 321 321 322 320 319 321 321 320 320 319 319 319 319 319 319 319 319 319 319 319 318 318 318 318 320 321 321 322 321 322 324 325 324 323 322 321 320 320 322 321 321 322 322 322 322 322 322 322
Wind_Speed
11 14 15 11 10 8 6 5 5 7 9 10 9 8 7 7 7 7 7 7 8 8 8 8 8 8 9 10 10 10 11 12 12 10 10 10 10 10 10 10 9 9 8 8 7 7 8 7 7 8 9 9 9 10 11 12 14 13 13 15 15 15 14 14 14 16 18 19 20 20 20 19 18 17 16 14 13 14 14 15 15 16 16 16 16
14 17 15 12 10 9 8 7 7 8 10 10 9 9 8 8 7 7 7 6 7 7 8 8 8 8 9 10 10 10 11 11 11 10 9 9 10 10 9 9 8 9 8 8 7 6 7 7 7 8 7 8 8 9 10 11 13 12 11 12 13 14 14 13 13 14 17 19 20 20 19 18 17 16 15 15 14 13 15 17 16 17 17 15 16
16 17 15 12 10 8 8 8 9 10 11 11 10 10 9 9 7 7 6 6 6 6 7 8 8 8 9 10 10 11 11 10 9 9 8 8 9 9 8 8 7 8 10 9 8 6 6 7 7 7 6 8 8 8 9 10 11 11 10 11 12 12 11 11 11 13 16 18 20 20 19 18 17 15 15 15 16 16 18 18 16 17 17 16 16
16 16 15 12 10 9 9 10 11 12 13 12 11 11 10 9 8 7 7 6 6 6 7 8 8 9 10 10 11 11 10 9 8 8 7 7 8 8 8 7 6 8 9 9 9 8 7 7 6 6 6 7 8 8 8 8 9 9 9 9 10 9 9 10 12 14 15 18 20 20 19 17 15 14 15 15 16 17 18 18 16 17 16 15 16
18 15 13 11 10 10 11 11 12 13 13 13 12 12 11 10 9 9 8 7 7 7 7 8 9 10 11 11 11 11 9 8 7 7 6 7 7 8 8 7 8 8 8 8 9 9 8 7 6 6 7 8 9 8 7 8 9 9 9 9 8 9 11 13 14 15 17 19 20 19 17 15 14 14 15 14 14 15 16 17 16 16 16 15 15
17 14 12 11 10 11 13 12 12 12 12 13 14 14 13 12 11 10 9 8 8 8 8 8 9 11 11 11 11 10 8 7 6 7 7 7 7 8 8 8 8 8 7 6 8 9 9 8 7 8 9 9 9 8 8 8 9 9 10 10 9 12 14 14 13 14 15 17 16 15 16 15 14 14 14 14 14 15 16 16 16 15 15 15 15
14 13 12 11 12 13 14 13 12 12 11 12 15 15 14 13 13 11 10 9 9 9 9 9 10 11 12 11 11 9 8 7 6 7 7 7 7 8 8 8 8 8 7 7 8 9 9 9 9 10 10 9 7 7 7 8 9 9 9 9 11 14 14 13 12 12 12 12 12 13 15 14 14 15 15 15 15 16 16 16 15 15 15 15 15
14 13 12 11 10 12 14 15 14 13 12 11 13 13 12 12 12 12 11 10 10 10 10 10 11 11 12 11 10 9 8 7 8 7 7 7 7 8 8 8 8 8 7 7 8 9 9 10 11 10 9 7 6 6 6 7 7 7 7 8 11 15 13 12 11 9 9 8 8 12 15 14 15 15 15 15 15 15 15 15 15 14 14 15 15
16 14 12 13 12 14 14 14 14 13 12 11 12 12 12 11 11 11 10 10 10 10 11 11 11 12 12 11 10 9 9 8 8 7 7 7 7 7 7 7 7 7 8 8 8 9 9 9 11 9 8 6 5 6 6 7 6 7 7 8 13 15 13 11 8 6 5 3 7 14 16 15 15 15 14 14 14 14 14 14 14 13 14 15 14
16 13 12 14 14 15 15 14 14 13 13 12 12 12 11 11 11 10 9 9 9 10 11 11 11 11 11 10 9 9 9 8 7 7 7 6 6 6 6 6 6 6 7 7 7 7 9 10 9 8 7 6 7 8 8 8 7 7 7 10 16 15 13 10 6 4 1 4 10 16 17 16 16 14 13 15 14 14 13 13 13 14 15 15 14
15 13 13 14 15 15 16 16 15 14 13 12 11 11 11 10 10 10 9 8 9 10 10 11 10 9 9 9 9 9 9 8 7 6 7 7 6 6 6 6 5 6 6 6 5 6 9 10 8 7 7 9 11 12 12 12 11 9 9 12 15 13 11 8 6 6 5 7 13 15 16 16 17 15 14 14 14 12 12 13 14 14 13 13 13
16 16 15 16 16 15 16 16 15 14 12 12 12 11 10 9 9 9 10 9 9 10 10 10 9 8 8 9 9 9 9 7 7 6 7 7 7 7 6 6 5 5 6 5 4 7 10 10 9 8 10 12 14 14 14 14 13 12 11 12 12 10 8 5 4 6 7 10 12 14 16 14 15 16 14 14 13 12 13 12 13 13 12 12 13
18 17 17 18 17 16 16 16 15 14 13 12 11 10 10 9 9 9 9 10 9 9 9 10 9 8 7 7 8 8 8 6 6 6 7 8 7 8 7 6 6 5 6 4 5 9 10 9 9 10 12 13 12 12 12 12 13 12 11 10 9 8 5 2 1 5 8 12 12 15 16 14 15 15 13 13 12 13 13 11 12 13 13 13 12
18 17 18 19 18 17 15 16 15 14 13 11 10 8 9 9 8 9 10 11 10 9 9 10 9 8 7 6 6 6 6 6 6 6 7 8 8 8 8 7 6 6 5 4 6 11 10 9 10 12 13 12 11 10 9 9 11 11 10 9 7 6 3 2 2 2 9 11 10 11 11 11 15 16 14 13 12 13 13 11 12 12 12 12 12
19 19 19 19 18 18 15 15 14 12 12 11 9 7 9 9 9 9 10 11 11 10 9 10 10 9 7 6 6 5 5 6 6 7 8 7 7 7 8 8 6 5 4 3 6 11 11 10 11 12 12 10 9 8 7 7 8 9 9 9 7 4 2 2 5 4 9 10 10 9 8 10 14 16 14 13 13 14 14 12 12 12 12 12 12
19 18 19 18 17 17 15 15 13 10 11 12 10 9 10 9 10 10 9 11 10 9 9 9 10 8 7 6 5 5 6 6 6 7 9 8 7 6 7 8 6 5 4 3 6 11 11 10 11 12 10 8 8 7 6 5 5 6 8 9 7 5 3 3 6 8 9 10 13 12 9 10 12 15 14 14 14 14 13 12 12 12 12 12 12
16 17 19 17 14 14 14 12 11 9 10 12 10 10 11 10 10 10 10 9 10 9 9 8 9 8 6 5 5 5 5 4 5 7 9 9 7 6 6 7 6 5 5 4 7 11 11 10 12 11 9 8 7 7 6 4 4 4 6 8 7 6 5 5 6 7 10 11 13 12 8 8 11 15 15 14 14 13 13 11 11 13 13 12 11
17 16 17 16 12 12 12 10 10 9 9 10 9 10 10 10 10 10 9 8 9 9 8 8 8 9 7 5 4 5 4 4 5 7 9 8 7 5 5 6 6 5 5 5 7 11 11 11 12 11 9 8 7 7 6 4 4 4 5 6 7 7 7 7 6 5 9 11 13 10 6 7 9 14 15 15 14 13 13 12 11 12 13 12 11
19 16 15 14 12 11 11 11 10 9 8 7 6 7 8 8 9 10 9 8 9 8 8 8 8 9 7 5 4 4 4 3 4 6 7 6 6 6 6 7 6 6 6 5 7 11 12 11 11 10 8 8 7 7 6 4 3 4 5 6 7 8 8 7 5 5 8 8 11 9 4 4 7 12 15 15 14 13 13 13 12 11 12 11 11
19 16 15 13 13 11 10 10 10 9 8 6 5 5 6 7 8 9 9 9 9 9 9 9 9 9 7 4 4 4 4 4 4 5 6 5 7 7 7 7 6 6 7 6 7 10 11 12 11 10 9 8 7 7 5 4 3 4 5 6 7 9 8 4 1 6 9 7 7 6 4 3 6 12 15 15 14 13 12 12 12 11 11 11 10
18 16 15 13 14 12 11 11 9 10 9 8 7 5 6 6 7 8 9 10 9 9 8 8 9 8 7 5 3 3 3 4 4 4 5 5 7 7 8 7 6 7 7 7 8 9 10 11 11 10 9 8 7 7 5 5 4 4 4 5 7 9 7 1 1 5 10 8 5 4 4 2 6 12 14 15 14 13 12 12 12 11 10 10 10
15 16 15 15 15 13 12 12 11 11 10 10 8 7 8 7 5 7 8 8 7 7 7 7 7 6 5 5 3 3 3 4 5 5 4 5 7 7 7 7 7 8 8 7 8 9 9 9 10 10 9 8 8 8 6 6 6 5 5 5 7 7 4 2 3 4 7 8 6 5 4 2 6 11 13 14 14 13 12 11 11 11 10 10 10
15 16 15 15 15 14 12 12 13 12 11 11 9 9 10 9 6 7 7 7 7 7 6 6 5 5 5 5 5 3 3 5 6 6 5 5 6 6 6 6 7 9 9 8 8 8 8 8 8 9 9 8 9 8 7 7 7 7 6 5 7 5 4 5 6 6 7 9 8 6 4 3 6 10 12 14 13 13 12 11 11 11 11 10 10
17 17 15 14 14 14 13 11 12 11 11 11 11 11 10 9 8 9 8 7 8 8 7 6 5 6 6 5 5 5 5 5 7 6 5 6 6 7 7 7 8 9 9 8 8 7 6 6 7 8 8 9 9 8 7 9 9 8 9 8 7 5 6 7 8 8 8 11 10 7 5 4 6 9 12 14 13 13 12 11 11 11 11 10 10
17 17 15 13 13 13 13 12 11 11 10 11 11 11 10 9 9 9 9 7 7 7 6 6 5 6 5 2 3 5 5 4 6 6 5 6 5 6 7 7 8 8 9 8 7 7 6 6 7 7 8 8 8 8 9 11 11 10 10 9 7 6 7 8 9 9 9 11 10 8 6 5 6 8 10 13 13 13 13 12 11 11 11 11 10
16 16 15 13 12 13 13 12 12 12 10 10 10 11 11 10 9 9 8 7 7 7 6 6 5 5 4 2 2 3 2 2 5 5 4 6 5 5 6 6 6 7 9 9 9 9 8 9 9 9 8 9 10 10 11 11 12 12 10 9 8 8 10 11 10 9 9 12 11 9 8 7 7 8 9 12 13 13 13 13 12 12 12 11 11
16 15 14 12 12 12 12 12 11 11 12 11 9 10 11 11 10 9 7 7 6 6 6 5 4 5 4 2 1 2 2 1 4 5 4 4 5 4 6 7 6 7 8 8 9 10 9 10 11 11 11 11 12 12 13 13 12 13 12 11 10 10 11 13 12 9 8 10 11 10 9 8 9 9 9 10 12 13 13 13 13 12 12 12 12
16 15 14 12 12 11 11 11 10 10 11 10 10 11 11 10 9 7 6 7 7 6 6 5 3 3 3 3 1 0 2 3 3 4 2 3 3 2 4 5 5 5 6 5 5 7 9 10 10 11 11 13 14 14 14 14 14 13 13 14 13 12 11 13 13 10 10 11 11 11 10 10 11 10 9 9 10 11 12 13 13 13 13 12 11
15 15 14 13 11 11 11 10 10 9 9 9 10 11 10 9 8 9 8 7 8 6 6 5 3 3 3 3 1 2 3 3 3 3 2 3 2 1 2 3 3 3 3 3 3 5 7 9 10 11 10 11 15 15 15 14 13 13 13 13 13 13 12 13 13 10 11 12 12 12 11 11 12 11 10 10 10 10 11 12 12 13 13 13 12
15 15 14 13 11 11 11 10 10 9 8 9 10 10 9 8 9 10 8 7 8 7 6 5 4 4 3 3 1 2 2 2 3 3 2 2 2 2 3 5 3 1 3 4 5 5 5 7 7 9 9 10 14 14 14 16 12 11 12 11 11 12 13 13 12 11 10 10 11 11 12 12 12 12 11 11 11 11 10 11 12 13 13 14 13
15 15 13 13 12 11 11 10 10 9 8 9 9 10 9 9 10 9 8 7 7 6 7 6 5 4 3 2 2 3 2 1 2 1 2 3 1 2 3 5 6 4 5 6 6 6 6 6 6 8 9 10 14 15 13 15 15 10 9 10 9 9 11 12 12 13 12 10 11 12 12 13 13 12 11 11 11 12 11 11 12 13 13 14 13
14 14 13 13 12 11 11 10 9 8 8 9 9 9 9 9 9 8 8 7 6 6 7 7 7 5 4 3 3 4 3 3 2 2 2 1 1 2 3 4 5 5 6 6 7 8 7 6 6 8 10 11 13 15 12 14 17 12 7 9 9 6 7 8 9 11 11 11 12 14 16 16 15 14 13 12 12 12 12 12 12 12 13 14 14
13 14 14 13 12 11 10 9 8 8 8 9 8 8 8 8 7 7 8 7 6 6 6 7 7 5 4 4 4 4 3 3 2 2 3 2 3 4 4 4 3 4 5 5 6 8 9 8 7 7 9 11 12 14 14 18 20 13 8 9 10 9 8 8 8 7 8 8 6 11 18 18 15 15 14 13 13 13 13 13 13 13 13 13 14
13 13 13 12 11 10 10 9 9 8 8 8 7 8 8 7 7 6 6 6 6 6 5 6 5 4 4 3 3 3 3 2 1 1 2 1 2 4 4 3 2 2 2 4 5 4 6 9 8 6 7 9 11 14 16 22 23 12 8 10 11 13 13 12 12 10 10 8 4 3 11 17 17 15 14 14 13 14 14 14 13 13 13 13 14
13 13 13 12 10 9 9 9 8 8 7 7 6 7 7 7 7 6 6 6 5 5 5 5 4 3 4 4 4 3 2 2 1 1 1 1 1 1 2 3 2 2 2 4 5 3 3 4 5 4 5 6 9 12 13 20 23 15 9 11 11 13 13 13 14 14 13 12 8 3 3 9 13 14 15 15 14 15 15 15 14 13 13 14 15
14 13 13 11 10 9 9 9 8 7 7 7 7 7 7 7 6 6 6 6 5 6 6 6 5 5 6 6 6 5 4 3 2 2 1 0 2 3 2 2 3 4 3 3 3 3 4 5 3 3 4 5 6 8 8 10 16 18 14 11 10 10 11 11 13 13 14 13 11 8 8 10 11 12 15 16 15 15 16 15 14 14 14 14 15
14 13 12 11 11 9 9 10 8 8 8 8 8 8 8 8 7 6 6 6 6 6 7 6 6 7 7 7 6 6 6 6 5 5 4 4 4 4 3 2 3 4 4 4 4 4 6 7 6 4 6 7 6 7 8 6 6 11 14 13 10 9 9 9 11 11 12 11 10 11 12 12 11 12 15 18 16 14 16 16 15 15 14 15 15
14 12 12 11 11 10 10 10 10 10 9 9 9 8 8 8 7 6 6 7 6 6 7 7 7 9 8 6 6 6 7 6 6 6 5 6 6 4 4 3 2 2 3 4 3 3 3 3 4 4 5 8 8 7 7 7 6 8 11 10 10 10 8 8 9 9 9 9 7 8 9 9 10 12 17 19 17 14 15 15 15 15 14 15 16
15 13 12 11 11 11 11 11 11 10 10 9 9 9 9 8 8 7 6 7 7 6 6 7 7 8 8 7 6 6 7 6 6 6 5 5 6 5 4 4 3 2 2 2 2 1 1 0 2 3 3 6 6 6 6 6 8 8 9 8 8 9 8 7 7 7 7 6 6 7 8 9 11 14 18 19 16 15 15 15 15 15 15 15 16
15 15 13 12 13 13 12 12 12 11 11 10 9 9 9 8 7 7 7 7 7 6 6 7 7 7 7 6 6 5 5 4 4 4 5 4 4 4 4 3 3 2 2 2 3 3 2 1 2 3 4 4 5 5 6 7 9 8 8 8 9 9 7 7 8 8 7 6 7 10 10 10 12 15 18 17 15 16 15 15 16 16 16 16 16
15 16 15 13 13 14 13 13 12 11 11 11 10 9 9 9 8 7 7 7 7 7 6 7 7 6 6 5 6 5 4 5 3 3 3 3 3 3 3 2 2 1 2 4 5 4 3 3 3 3 3 3 4 5 6 7 8 8 8 9 11 10 8 8 8 8 8 7 7 10 11 11 15 18 18 16 15 16 16 17 19 18 18 18 17
16 16 16 15 14 14 14 14 13 13 12 12 11 10 9 9 9 8 9 8 7 7 8 7 6 6 6 5 5 4 4 4 3 3 4 3 3 3 3 3 2 2 2 3 3 4 3 2 1 2 2 3 3 4 6 5 3 5 6 7 9 9 9 8 6 6 6 5 6 9 10 11 16 18 18 17 16 16 17 19 20 20 19 18 18
17 17 16 16 15 15 15 14 14 14 13 13 12 11 11 10 9 9 9 9 8 9 10 8 7 7 6 5 5 5 4 4 3 4 5 5 4 4 4 4 4 4 3 3 3 4 4 3 3 2 3 4 4 4 4 3 2 3 4 3 3 5 6 6 6 7 6 5 6 8 7 9 15 16 15 17 19 20 20 19 20 21 22 21 20
18 17 17 18 17 17 16 15 15 15 13 14 13 12 11 10 9 9 8 9 8 9 9 8 7 7 6 6 5 5 5 5 5 5 5 5 5 5 5 5 5 5 5 5 5 5 5 4 5 4 5 5 5 4 4 2 2 3 1 0 1 1 3 4 8 11 9 5 6 8 8 10 13 14 12 14 17 19 19 16 16 18 21 22 21
18 18 19 19 18 18 18 17 17 15 14 14 13 12 12 11 11 10 9 10 10 9 9 9 8 8 7 7 6 6 6 6 6 6 6 6 5 6 5 5 6 5 6 6 5 6 5 5 6 6 6 7 6 6 5 4 3 1 1 2 1 1 2 3 6 8 9 8 7 9 11 12 14 12 11 12 13 15 16 15 15 14 13 15 15
16 19 20 19 18 19 19 18 17 16 15 16 14 14 14 12 12 12 10 11 11 11 11 10 9 9 9 8 8 7 7 7 6 6 6 6 6 6 6 6 5 5 6 6 5 5 5 6 7 6 6 7 6 6 6 6 4 2 1 1 2 2 3 3 3 3 8 9 7 10 12 13 16 14 12 13 11 11 14 13 14 12 9 7 9
16 17 18 19 18 19 19 19 18 16 16 16 15 15 15 14 13 12 12 12 12 12 12 10 10 11 11 10 10 9 7 7 7 6 6 6 5 5 5 5 5 5 4 5 5 5 5 6 6 6 6 6 6 6 6 8 6 3 3 3 4 5 6 5 3 2 4 5 6 11 12 12 14 14 15 16 14 12 10 9 9 10 9 8 7
13 16 17 17 18 19 19 19 17 16 17 17 17 16 16 15 15 14 13 13 13 13 12 11 11 11 11 10 10 10 8 7 7 6 5 5 5 4 4 5 4 4 3 4 5 5 5 5 5 5 5 5 5 5 5 7 6 5 5 4 5 7 8 10 11 8 4 2 6 9 11 12 12 12 13 14 13 13 13 11 10 9 8 8 9
6 7 11 15 16 17 19 18 17 16 16 17 17 16 16 15 15 15 14 13 13 13 12 11 11 12 11 11 10 10 10 9 7 6 5 5 4 3 3 4 3 3 4 5 5 4 4 4 4 4 5 4 4 4 5 5 7 7 7 7 7 7 8 9 10 9 5 3 3 4 8 10 9 12 13 11 10 12 13 13 11 11 11 11 11
7 7 9 12 14 15 17 17 16 16 16 17 17 16 15 15 15 14 13 13 14 14 13 12 12 12 12 11 10 10 10 10 9 7 6 5 4 3 3 4 3 4 4 4 4 4 4 4 5 4 4 4 4 3 4 4 5 6 7 8 8 8 7 6 8 9 7 5 4 4 8 9 6 7 9 9 8 10 12 12 11 11 11 9 9
16 15 14 14 15 15 16 16 15 14 15 16 17 16 15 14 14 14 13 13 15 15 15 14 13 13 12 12 11 10 9 10 10 9 7 5 5 4 4 4 3 4 4 4 4 4 4 4 4 4 4 4 4 4 3 3 4 5 6 7 8 9 8 6 9 10 7 4 4 3 8 11 10 12 12 11 10 8 9 10 10 12 12 12 12
Wind_Direction
125 122 117 120 123 128 131 112 92 85 86 92 98 99 107 118 121 122 118 118 117 119 120 121 119 114 112 113 117 112 110 113 111 105 100 100 100 103 102 100 97 96 104 108 111 118 122 119 103 90 93 93 94 100 98 97 94 85 78 80 83 89 91 90 86 90 96 95 95 96 97 98 97 94 89 89 92 96 103 99 92 93 93 90 90
125 122 119 128 132 135 133 125 106 94 91 94 99 99 102 108 111 113 113 120 120 122 125 128 126 117 117 119 121 117 115 116 112 108 102 100 100 105 109 104 102 108 113 118 118 121 123 117 108 101 101 102 102 106 107 107 106 102 92 87 89 95 97 92 90 95 102 102 100 99 98 99 98 95 89 88 90 97 105 100 94 94 94 93 92
119 120 120 129 136 139 132 124 105 96 94 93 98 100 101 105 107 114 122 132 133 135 136 139 134 123 122 125 126 122 119 117 111 107 103 98 97 103 109 103 106 120 127 132 129 129 128 121 118 113 114 114 107 107 110 111 111 112 109 105 106 105 97 90 95 100 104 106 106 104 100 98 97 94 91 90 90 96 102 97 94 97 96 94 93
119 119 122 134 142 143 131 119 103 97 99 99 101 105 108 114 118 125 138 148 150 149 146 146 137 129 128 131 130 125 120 115 110 107 103 98 95 96 99 99 106 122 136 143 134 134 136 127 125 119 122 119 107 105 101 104 108 111 116 118 120 111 98 97 104 108 106 105 104 104 100 99 101 96 92 92 92 97 101 98 97 99 96 95 94
121 120 124 135 140 143 136 121 109 103 106 111 111 116 122 127 132 136 148 155 156 149 143 142 134 130 131 133 131 127 121 116 114 109 103 99 95 96 97 97 98 111 135 150 144 141 140 135 127 120 118 109 105 110 104 101 105 107 111 117 122 115 107 108 109 113 113 107 101 101 102 102 101 94 94 96 94 97 100 99 99 97 97 100 100
116 120 123 128 130 136 137 127 121 121 125 130 130 132 138 140 142 142 147 150 149 138 129 131 128 128 130 132 130 129 125 122 120 112 104 100 99 103 103 101 100 109 121 134 150 149 141 142 133 124 118 114 114 119 120 112 110 108 109 114 118 119 117 118 120 122 125 118 107 102 104 103 100 96 99 102 96 97 99 100 101 99 100 103 103
111 115 112 117 121 128 138 141 142 147 148 147 143 143 146 144 143 141 140 144 145 136 131 133 130 131 132 130 130 131 131 129 120 111 105 100 103 107 107 108 111 115 111 112 139 145 135 137 132 125 122 123 123 123 127 122 120 120 122 126 121 123 123 122 125 129 134 132 124 114 107 105 103 103 106 104 98 100 104 103 104 104 103 104 104
115 118 112 117 124 137 147 152 155 158 157 151 144 143 143 139 138 139 141 145 145 141 140 140 137 136 135 134 135 136 135 131 121 115 109 106 107 109 109 112 116 119 117 114 128 136 135 134 128 123 124 123 119 124 128 127 131 131 138 142 127 124 121 117 119 126 137 138 140 128 114 109 107 107 111 109 105 107 109 107 108 106 105 107 105
112 118 125 134 144 155 155 155 157 156 152 146 140 139 138 134 134 138 142 146 145 143 144 142 141 140 140 141 140 137 136 130 125 121 116 113 114 114 113 114 114 116 119 125 131 135 135 130 125 121 120 115 116 126 126 126 133 135 141 140 128 120 109 107 107 117 140 134 137 134 120 113 111 112 116 116 112 110 110 108 108 106 110 113 107
115 124 135 142 150 156 157 157 153 149 147 144 142 139 138 137 136 138 141 143 141 139 141 141 141 144 143 142 138 135 134 130 129 126 120 116 116 116 116 114 111 116 123 136 140 134 130 125 125 123 118 114 115 118 117 116 118 130 133 128 126 119 109 105 99 90 46 59 103 121 119 116 116 116 119 120 118 111 111 112 110 110 112 111 108
126 144 151 148 150 152 156 157 152 152 150 146 143 136 136 137 137 140 137 134 135 137 139 140 142 146 143 140 137 136 136 137 138 134 129 125 121 120 119 118 117 123 125 133 142 141 136 130 131 127 121 118 114 114 112 106 105 116 122 128 129 124 118 111 98 68 46 84 100 114 118 119 122 120 123 125 123 115 115 118 116 115 114 111 111
150 154 152 150 151 154 156 156 155 155 154 151 147 142 142 139 142 146 137 128 134 140 142 143 144 145 144 141 140 143 147 149 149 142 136 129 125 126 122 124 124 122 122 123 143 150 144 138 138 135 129 123 119 118 113 105 102 111 122 132 133 126 122 115 98 50 65 110 112 119 124 125 126 118 122 128 125 122 120 119 121 119 117 117 117
159 151 150 154 156 159 160 160 161 160 161 158 154 154 154 154 153 151 144 137 136 141 142 143 145 147 145 142 147 153 152 151 152 149 148 141 133 130 124 125 125 120 125 131 150 153 151 147 144 141 137 131 129 124 115 110 107 114 126 132 133 129 124 116 86 45 89 118 118 126 130 129 127 119 123 130 129 130 127 122 123 125 123 122 121
149 148 155 159 159 162 167 167 165 162 163 162 162 166 167 173 169 160 156 146 140 146 148 146 148 150 147 149 157 159 153 152 159 163 166 157 148 143 133 129 126 125 127 133 155 159 159 155 149 147 143 138 138 130 114 111 111 118 130 134 139 137 130 89 25 84 128 127 117 126 136 132 132 131 132 134 134 137 133 126 125 128 129 127 126
141 152 160 158 156 162 171 170 167 166 171 173 176 182 173 175 174 168 167 156 151 157 156 151 153 152 152 157 162 165 164 170 179 175 171 163 158 155 141 132 128 128 124 131 161 164 163 157 153 153 146 138 138 134 116 109 110 118 130 141 147 137 109 41 34 94 138 135 128 132 138 136 139 140 138 137 137 140 137 131 130 131 132 131 128
138 144 155 157 155 160 170 171 174 177 177 178 180 182 172 170 172 171 174 165 161 164 158 155 156 156 158 155 159 172 172 179 192 181 173 168 165 159 144 140 138 134 125 131 165 165 163 157 158 159 152 144 140 138 129 118 114 115 131 146 151 138 109 78 80 110 137 137 142 150 144 137 145 143 141 142 140 142 141 137 136 135 136 134 133
130 134 141 146 146 150 158 164 169 165 161 163 164 165 165 164 169 175 177 171 169 167 160 158 160 164 169 162 161 165 165 176 190 191 183 174 173 164 154 152 145 139 137 142 165 168 169 163 163 167 162 157 150 148 148 140 128 117 133 147 158 144 117 111 105 135 153 140 144 158 152 142 151 149 145 146 145 146 147 146 142 140 141 138 137
128 135 132 130 130 129 138 143 144 145 142 144 148 151 156 161 168 177 176 174 174 169 164 165 168 170 175 173 160 144 143 162 182 199 193 181 178 161 158 157 140 137 144 153 165 170 175 172 170 174 171 166 162 162 163 159 144 131 133 143 159 147 123 116 89 110 141 135 146 159 152 145 159 158 151 149 151 150 150 151 145 143 145 143 141
127 133 128 125 124 118 124 124 126 134 131 127 140 151 157 166 175 186 188 185 178 175 173 171 173 173 174 171 148 126 126 138 169 194 191 183 171 153 156 149 136 144 150 155 164 172 178 177 176 178 179 177 177 173 171 176 167 155 141 139 154 150 138 131 101 117 132 132 147 157 152 146 167 164 154 153 156 154 153 153 151 150 148 147 146
128 129 125 125 126 129 128 122 125 128 128 124 133 152 161 176 185 193 194 187 181 179 177 174 175 172 170 166 147 127 124 134 151 178 181 177 165 157 157 147 143 154 155 157 163 173 177 179 183 183 186 188 187 184 185 203 201 185 160 146 154 159 154 138 100 151 149 149 149 160 177 172 178 165 156 158 159 159 159 156 157 158 155 153 152
121 123 124 125 128 135 136 135 132 123 126 126 123 134 146 165 177 180 181 180 179 177 174 172 172 168 162 161 151 132 137 154 154 176 182 174 175 167 159 155 151 151 154 157 160 167 173 182 191 190 195 198 199 202 210 222 219 211 181 158 162 169 167 139 308 163 153 161 161 173 183 191 188 170 162 163 161 164 164 161 163 163 162 160 160
115 117 121 123 123 127 131 137 136 130 127 122 124 132 128 131 147 159 169 171 165 162 162 157 158 159 159 167 158 139 162 185 181 182 174 174 186 178 163 159 156 156 156 156 157 164 174 186 196 198 202 205 214 225 230 234 227 223 206 172 168 173 190 254 243 180 158 165 173 183 184 197 192 176 168 165 164 168 169 169 169 169 169 168 168
122 117 118 121 121 122 126 131 133 131 125 126 132 131 126 127 133 139 143 147 144 141 142 143 151 151 163 189 180 174 188 200 203 181 164 181 186 175 166 161 164 169 165 160 160 166 179 189 200 205 209 215 224 229 232 246 243 226 219 195 178 186 232 236 210 198 185 177 178 184 183 200 195 178 171 169 169 172 174 176 176 176 175 175 175
123 119 116 118 121 120 123 125 126 126 122 127 129 124 125 128 128 131 135 142 146 142 146 158 170 164 168 194 190 197 193 188 203 187 170 185 180 170 166 161 165 171 172 167 165 174 187 198 212 215 215 221 225 224 221 240 250 239 228 212 195 203 229 227 212 210 197 181 183 188 190 206 192 174 173 174 175 177 177 181 184 184 182 181 182
119 117 112 112 119 118 120 120 119 119 119 125 127 127 128 126 120 127 144 155 155 149 161 171 166 163 159 168 194 212 203 181 190 182 171 178 173 166 159 160 169 176 180 173 174 188 196 205 227 235 232 231 233 236 230 229 234 239 239 222 206 209 220 225 224 223 207 188 186 190 199 211 189 171 173 175 180 183 181 185 190 190 190 189 189
114 112 109 106 110 113 117 115 116 118 117 123 128 127 127 131 127 129 139 143 153 157 170 176 153 155 162 168 204 213 196 178 190 178 165 171 165 164 165 172 184 190 189 187 192 196 202 206 215 230 239 243 244 243 239 230 223 227 235 229 221 221 224 225 227 236 222 197 185 188 199 211 197 176 173 174 180 184 184 188 193 196 197 196 195
110 111 112 107 104 108 112 111 113 118 117 120 126 123 123 129 134 140 139 129 146 162 166 173 151 154 159 141 151 198 173 157 200 190 179 178 167 179 189 190 201 206 203 207 211 209 217 223 219 222 228 239 246 249 247 234 222 224 222 221 227 226 227 230 230 231 217 194 186 193 202 211 204 189 181 177 178 183 186 190 194 199 201 202 201
109 110 113 111 107 107 108 109 109 112 115 120 121 116 116 124 129 134 135 129 137 146 144 146 139 132 109 103 116 204 158 146 160 167 183 200 186 198 207 211 222 225 223 224 228 228 233 239 237 234 238 245 252 264 266 241 218 225 224 215 218 221 226 240 240 225 208 203 200 199 205 211 207 199 194 188 184 186 188 191 197 201 203 208 208
109 109 112 109 108 108 104 104 103 103 108 113 111 107 115 124 121 119 122 115 116 123 122 123 124 108 93 109 83 56 113 134 125 127 166 198 198 239 273 268 242 236 268 268 261 259 252 251 247 247 255 259 261 268 279 267 228 221 232 220 211 213 220 237 249 243 218 205 202 200 204 208 207 205 203 200 197 195 193 194 199 202 204 212 216
108 108 110 107 107 107 101 97 96 95 94 98 101 102 109 104 100 113 116 103 106 110 108 111 117 112 115 129 60 37 86 130 142 143 153 178 207 274 310 333 341 334 321 306 296 297 289 280 266 269 276 276 277 269 271 284 265 222 230 233 220 216 217 223 237 252 241 208 203 205 205 205 205 205 208 209 207 205 201 199 203 204 205 211 218
109 109 109 109 109 104 101 97 94 95 93 94 96 97 100 90 91 105 106 105 109 103 103 104 106 111 113 117 56 33 72 144 171 154 121 155 188 274 298 347 359 342 322 304 299 300 294 286 276 284 291 289 293 284 266 279 282 250 229 237 238 227 222 224 227 238 244 228 218 216 210 208 207 207 209 212 213 213 211 207 208 208 208 211 215
111 112 112 113 111 106 104 100 96 94 93 95 97 97 100 98 99 106 105 108 106 98 105 102 100 108 98 85 66 56 69 97 107 93 92 129 74 6 339 0 351 318 312 310 301 290 279 274 278 284 291 298 300 292 280 275 275 264 243 246 260 259 232 230 227 229 240 238 228 223 214 208 209 213 216 220 219 219 218 215 215 214 214 214 214
114 115 117 115 111 110 107 103 99 96 95 96 97 99 99 98 98 106 111 110 102 96 101 98 96 103 94 79 76 76 73 83 94 75 55 18 24 36 29 24 337 296 300 319 310 287 277 272 280 285 284 296 298 289 288 279 268 259 260 259 256 258 251 244 237 237 250 250 245 232 217 208 209 214 217 224 226 224 222 219 218 218 220 220 219
119 120 118 115 113 113 110 107 103 99 100 98 93 94 93 91 91 96 107 107 103 101 96 95 99 104 99 86 76 83 81 89 133 75 53 5 15 36 59 63 356 304 303 330 333 307 288 272 270 282 279 287 292 286 287 282 274 264 259 260 254 254 256 258 256 258 262 259 287 267 214 209 210 211 215 220 224 226 225 221 221 222 223 224 224
123 123 120 117 116 115 113 113 111 107 102 97 91 90 89 89 90 93 103 100 98 102 96 98 107 101 103 104 94 94 96 95 152 161 188 265 13 77 91 74 41 25 5 356 356 342 319 288 263 277 292 294 289 280 278 286 292 295 270 255 257 258 260 263 262 262 261 262 273 288 237 230 220 214 216 217 219 223 223 221 221 223 225 226 226
125 126 123 122 120 119 119 120 118 115 108 101 95 92 94 91 87 90 96 95 94 94 94 105 105 88 90 94 88 88 98 106 115 125 150 172 143 147 127 77 61 58 48 25 3 341 347 354 341 317 314 301 280 275 283 296 302 307 303 288 272 265 268 270 267 262 257 265 276 269 271 282 265 240 227 220 218 217 218 220 221 222 223 226 227
129 128 130 130 127 126 126 127 125 120 115 109 101 95 95 93 89 88 92 93 94 95 98 104 96 91 94 89 83 78 80 92 90 92 104 109 118 119 112 89 60 57 57 45 19 5 358 353 351 349 335 319 295 291 313 321 296 300 307 308 305 292 285 284 280 271 260 263 278 275 270 280 277 259 239 228 224 219 218 219 220 222 224 226 229
132 133 136 135 133 132 131 131 128 124 119 115 111 106 102 101 99 94 93 94 92 94 93 90 87 95 101 97 93 79 72 82 81 81 95 104 108 101 97 97 62 39 55 61 44 32 17 359 6 0 334 326 322 318 323 324 310 299 293 304 322 313 300 297 290 277 264 253 256 274 272 263 254 246 240 233 228 227 224 223 224 225 227 230 232
137 141 142 140 139 137 136 135 132 131 128 123 119 118 112 108 108 106 105 104 99 97 91 90 88 92 98 94 87 74 67 68 65 71 79 90 97 87 90 101 88 70 70 96 122 101 111 188 61 34 338 331 343 346 342 345 338 313 289 294 316 315 305 295 285 272 262 239 222 237 237 234 239 242 243 237 231 231 229 229 231 228 228 230 230
144 147 149 149 147 144 142 139 139 139 136 133 129 128 127 122 123 124 122 119 114 110 101 100 98 95 96 92 87 82 77 69 59 66 62 64 78 80 95 105 102 107 81 75 92 95 84 60 49 41 15 356 2 9 7 1 350 324 301 305 308 305 299 285 278 273 264 243 238 245 233 226 237 245 248 243 236 234 231 230 234 234 231 230 230
151 154 155 157 155 153 150 147 149 149 145 145 142 142 144 142 141 139 135 130 124 122 112 105 105 103 99 96 96 95 96 92 81 78 71 69 78 84 92 80 86 104 41 55 71 79 80 52 17 10 12 354 346 359 357 350 348 336 326 331 324 305 294 292 287 285 279 265 266 271 259 236 233 242 249 246 234 234 238 236 236 239 237 233 236
155 160 161 162 161 160 158 157 159 159 156 155 156 156 157 155 154 153 148 140 139 142 131 118 118 114 104 101 105 105 105 101 96 99 93 87 85 82 76 61 58 51 36 54 61 59 69 64 10 351 356 345 335 345 336 331 357 352 336 331 330 318 303 303 297 295 301 288 277 273 264 243 236 245 254 248 234 232 238 239 240 245 245 238 238
159 166 168 167 166 166 166 167 167 167 167 165 165 164 164 164 161 159 152 143 140 137 132 130 129 124 113 108 108 105 105 103 102 106 97 86 81 81 75 64 56 43 39 52 52 45 43 43 41 30 13 2 356 356 339 311 290 320 337 329 339 333 313 323 334 326 330 324 291 267 258 256 247 249 255 247 235 231 235 242 247 252 248 241 242
164 171 174 172 171 172 173 174 174 174 175 172 171 169 165 163 159 156 149 145 140 130 131 135 132 127 117 111 108 100 100 101 96 98 98 91 87 83 77 72 65 53 51 55 56 47 42 46 44 34 25 19 11 7 8 2 313 295 329 105 82 325 281 340 341 323 326 335 308 287 287 287 268 260 258 248 238 236 245 250 248 254 254 250 256
171 175 178 176 174 174 176 178 178 178 178 175 174 170 163 159 156 152 145 142 144 146 147 143 143 142 126 115 114 110 106 104 97 97 98 93 90 85 77 77 72 65 61 57 59 54 45 53 53 43 35 29 14 358 4 16 3 311 201 194 161 193 236 339 331 315 324 329 316 303 297 292 286 279 261 248 241 236 248 255 244 249 258 247 248
181 178 177 179 177 176 177 178 181 180 179 177 174 170 167 163 161 159 155 153 158 170 167 159 159 153 139 130 123 119 115 112 107 103 100 93 92 88 80 79 72 71 71 60 57 54 44 47 46 37 31 28 16 2 4 9 356 314 341 293 227 228 242 313 325 303 318 318 310 304 297 286 285 286 274 267 267 247 241 250 250 253 264 241 230
188 182 178 181 180 178 178 179 183 183 181 181 177 173 171 170 171 173 172 172 174 176 171 165 163 151 146 145 134 127 123 118 114 108 104 97 92 87 82 82 74 66 70 72 68 54 44 45 41 34 30 26 23 15 7 5 349 317 353 335 272 268 258 253 250 271 317 317 306 298 294 285 280 284 282 275 284 294 284 274 275 276 280 285 284
192 184 181 183 183 180 180 181 183 184 182 183 180 179 178 177 181 184 185 186 180 168 162 161 159 154 153 151 142 136 132 128 125 117 109 101 95 90 84 83 79 63 58 80 78 57 46 43 38 44 41 32 30 18 2 1 357 349 356 345 318 308 282 255 245 247 249 271 300 296 290 285 271 264 269 271 278 294 298 294 293 287 279 285 288
290 226 197 188 188 185 182 184 185 185 185 185 184 185 185 184 189 192 190 188 175 162 162 163 162 162 160 157 153 149 145 140 135 126 118 111 102 95 90 84 80 69 55 63 66 49 47 46 37 42 37 35 37 24 11 5 356 351 349 344 338 328 310 288 275 274 276 284 294 288 296 296 269 247 246 251 261 268 277 283 284 280 273 269 266
246 246 234 208 198 191 186 189 188 185 186 187 189 192 192 193 196 197 192 180 165 163 170 171 170 168 166 165 163 159 152 146 144 138 131 127 116 104 99 86 75 75 58 50 56 47 46 44 36 33 26 26 25 12 9 359 347 344 341 339 337 328 323 322 324 332 336 335 332 318 326 334 323 290 265 251 260 265 272 280 284 290 287 277 269
205 198 217 219 210 200 192 193 192 189 188 189 193 197 198 200 201 200 195 180 168 171 175 174 175 175 172 171 167 163 160 156 154 147 140 137 128 115 102 89 77 74 59 47 52 47 45 37 21 19 16 13 4 353 359 357 349 346 339 339 338 335 337 323 321 331 333 334 344 338 334 332 329 326 317 313 315 304 296 298 299 301 298 291 286